CZ-2C R/B

Satellite information

Favourite Embed

Satellite Type and Status

ROCKET BODYIN ORBIT

Key statistics

Satellite CZ-2C R/B at a glance.

Uptime

4316

Days in orbit

Revolutions

≈ 14.6

Per day

Orbit

SSO

Sun Synchronous Orbit

Inclination

98.4

Latest

Satellite identification and parameters

Extended collection of information and parameters for CZ-2C R/B.

Object identification

Identified? True

Debris? False

Object name: CZ-2C R/B

International designator: 2013-035B

Object number (NORAD): 39203

Object ID (CCSDS): 39203

Country: PEOPLES REPUBLIC OF CHINA (PRC)

Current information (Y/N): Y

RCS size: LARGE

Orbital parameters

Period: 98.864 minutes

Inclination: 98.3667 deg

SMA: 7082.491 km

Apoapsis: 739.007 km

Periapsis: 669.705 km

RAAN: 349.521 deg

Eccentricy: 0.0048925

Argument of periapsis: 309.192 deg

Mean anomaly: 50.4937 deg

Mean motion: 14.56544337 rev/day

Mean motion (dot): 0.00000475 rev/day2

B* drag term: 0.00011607 1/REarth

Two-line elements (TLE)

Creation date: May 8, 2025, 10:56 p.m.

Reference frame: TEME

Reference center: EARTH

Epoch: May 8, 2025, 2:19 p.m. UTC

TLE line 0: 0 CZ-2C R/B

TLE line 1: 1 39203U 13035B 25128.59687194 .00000475 00000-0 11607-3 0 9990

TLE line 2: 2 39203 98.3667 349.5210 0048925 309.1920 50.4937 14.56544337627425

Live tracking on map

Real-time ground track for satellite CZ-2C R/B.

In-orbit conjunctions

A list of the most updated potential collisions computed for object CZ-2C R/B.

Target Orbit TCA Probability of collision Miss distance Type
CZ-6A DEB SSO 2025-04-16 16:32:48 0.0003177853 147.0 (m) DEBRIS
DMSP 5D-2 F13 DEB SSO 2025-03-02 03:06:33 0.0001178247 296.0 (m) DEBRIS
DELTA 1 DEB SSO 2025-01-27 03:43:30 0.000130066 887.0 (m) DEBRIS
CZ-6A DEB LEO 2024-10-18 04:18:32 0.001569144 172.0 (m) DEBRIS

Associated space launch

CZ-2C R/B was lifted into orbit during the mission ‘Long March 2C | Shijian 11-05’, on board a Long March 2 space rocket.

The launch took place on July 15, 2013, 9:27 a.m. from Launch Area 4 (SLS-2 / 603).

For more information about the launch, click the button.

Launch to space Long March 2C | Shijian 11-05
Long March 2C | Shijian 11-05

Agency: N/A

Status: Launch Successful

Launch date: July 15, 2013, 9:27 a.m. UTC

Rocket: Long March 2

Launch pad: Launch Area 4 (SLS-2 / 603)

Location: Jiuquan Satellite Launch Center, People's Republic of China

...

Latest news about this satellite

There are no fresh news available about this satellite. Check back as we update our databases every day.


Newsletter sign-up

Weekly statistics, charts and insights to help you stay on top of the space industry.